Location: Christianberg
(48.9086°N, 14.0209°E)
Time: 21:17:00
(UTC+00:00)

ASTEX 1 - Pass Details

Date: 20 June 2021
Orbit: 720 x 743 km, 92.7° (Epoch: 02 August)

Event Time Altitude Azimuth Distance (km) Brightness Sun altitude
Rises 01:38:28 0° 165° (SSE) 3,157 6.3 -10.0°
Reaches altitude 10° 01:40:46 10° 163° (SSE) 2,235 5.6 -9.8°
Maximum altitude 01:45:41 70° 81° (E) 782 3.7 -9.3°
Drops below altitude 10° 01:50:36 10° 358° (N) 2,238 6.7 -8.8°
Sets 01:52:54 0° 357° (N) 3,161 7.5 -8.6°
